Radiation Dose at Monitoring Post of Fukushima Daini Nuclear Power Station
Date,Time,MP-1(microSv/h),MP-2(microSv/h),MP-3(microSv/h),MP-4(microSv/h),MP-5(microSv/h),MP-6(microSv/h),MP-7(microSv/h),Wind Direction,Wind Velocity(m/s),Rain
2020/12/29,00:00,0.179,0.161,0.263,0.249,0.241,0.142,0.086,northwest,6.5,No
2020/12/29,00:10,0.179,0.161,0.263,0.249,0.241,0.143,0.086,northwest,4.7,No
2020/12/29,00:20,0.178,0.161,0.263,0.250,0.242,0.143,0.086,west-northwest,2.7,No
2020/12/29,00:30,0.179,0.160,0.264,0.250,0.241,0.143,0.087,west,2.1,No
2020/12/29,00:40,0.179,0.160,0.263,0.248,0.242,0.143,0.086,west-northwest,2.3,No
2020/12/29,00:50,0.181,0.162,0.264,0.249,0.241,0.143,0.087,west-northwest,0.8,No
2020/12/29,01:00,0.180,0.162,0.264,0.249,0.242,0.143,0.086,northwest,1.3,No
2020/12/29,01:10,0.179,0.161,0.263,0.250,0.242,0.143,0.086,west-northwest,2.1,No
2020/12/29,01:20,0.179,0.160,0.264,0.249,0.240,0.143,0.086,northwest,2.6,No
2020/12/29,01:30,0.181,0.162,0.264,0.249,0.242,0.142,0.087,west-northwest,2.7,No
2020/12/29,01:40,0.180,0.162,0.263,0.249,0.241,0.142,0.087,northwest,3.8,No
2020/12/29,01:50,0.179,0.162,0.263,0.249,0.242,0.143,0.086,northwest,4.3,No
2020/12/29,02:00,0.179,0.161,0.264,0.249,0.241,0.142,0.087,north-northwest,4.3,No
2020/12/29,02:10,0.179,0.162,0.264,0.251,0.242,0.143,0.086,north-northwest,5.8,No
2020/12/29,02:20,0.182,0.161,0.264,0.250,0.242,0.143,0.087,north-northwest,6.3,No
2020/12/29,02:30,0.180,0.162,0.264,0.250,0.243,0.143,0.087,north-northwest,5.0,No
2020/12/29,02:40,0.180,0.161,0.263,0.249,0.242,0.143,0.087,north-northwest,4.9,No
2020/12/29,02:50,0.179,0.162,0.263,0.249,0.242,0.142,0.087,northwest,5.2,No
2020/12/29,03:00,0.180,0.162,0.263,0.250,0.242,0.142,0.087,northwest,5.2,No
2020/12/29,03:10,0.179,0.162,0.263,0.250,0.242,0.143,0.086,north-northwest,5.5,No
2020/12/29,03:20,0.178,0.162,0.264,0.249,0.242,0.142,0.086,north-northwest,5.3,No
2020/12/29,03:30,0.179,0.162,0.263,0.249,0.242,0.143,0.086,north,5.5,No
2020/12/29,03:40,0.180,0.162,0.264,0.249,0.243,0.143,0.087,north-northwest,4.5,No
2020/12/29,03:50,0.180,0.162,0.264,0.249,0.242,0.144,0.086,northwest,4.9,No
2020/12/29,04:00,0.179,0.162,0.264,0.249,0.241,0.143,0.086,northwest,3.7,No
2020/12/29,04:10,0.180,0.162,0.263,0.250,0.241,0.143,0.087,northwest,3.7,No
2020/12/29,04:20,0.179,0.160,0.263,0.248,0.241,0.143,0.086,north-northwest,2.6,No
2020/12/29,04:30,0.180,0.161,0.263,0.249,0.242,0.143,0.087,north,2.0,No
2020/12/29,04:40,0.180,0.161,0.263,0.250,0.241,0.143,0.086,northwest,1.5,No
2020/12/29,04:50,0.181,0.162,0.262,0.248,0.241,0.142,0.086,north-northwest,1.5,No
2020/12/29,05:00,0.180,0.161,0.264,0.249,0.241,0.142,0.087,north-northwest,0.8,No
2020/12/29,05:10,0.180,0.161,0.264,0.248,0.243,0.143,0.086,-,CALM,No
2020/12/29,05:20,0.180,0.161,0.263,0.248,0.241,0.142,0.086,north-northwest,0.6,No
2020/12/29,05:30,0.181,0.161,0.263,0.250,0.242,0.143,0.086,north-northwest,0.7,No
2020/12/29,05:40,0.180,0.162,0.263,0.249,0.241,0.142,0.087,north-northwest,1.1,No
2020/12/29,05:50,0.179,0.163,0.264,0.249,0.242,0.144,0.086,northwest,0.8,No
2020/12/29,06:00,0.180,0.161,0.264,0.249,0.242,0.143,0.087,north,0.9,No
2020/12/29,06:10,0.180,0.161,0.264,0.249,0.242,0.144,0.087,north-northwest,1.2,No
2020/12/29,06:20,0.180,0.162,0.263,0.249,0.242,0.142,0.086,north-northwest,1.3,No
2020/12/29,06:30,0.180,0.161,0.263,0.248,0.242,0.143,0.086,north,1.5,No
2020/12/29,06:40,0.180,0.162,0.263,0.249,0.242,0.142,0.087,north,2.8,No
2020/12/29,06:50,0.179,0.162,0.263,0.250,0.241,0.143,0.087,north,3.4,No
2020/12/29,07:00,0.180,0.162,0.264,0.248,0.242,0.143,0.086,north,3.0,No
2020/12/29,07:10,0.180,0.162,0.262,0.250,0.241,0.143,0.087,north-northwest,3.0,No
2020/12/29,07:20,0.180,0.161,0.263,0.249,0.241,0.142,0.087,northwest,2.9,No
2020/12/29,07:30,0.179,0.161,0.263,0.250,0.240,0.142,0.087,north-northwest,2.7,No
2020/12/29,07:40,0.179,0.161,0.264,0.249,0.242,0.142,0.087,north-northwest,3.6,No
2020/12/29,07:50,0.181,0.162,0.265,0.248,0.241,0.143,0.086,north-northwest,3.4,No
2020/12/29,08:00,0.180,0.161,0.262,0.248,0.242,0.143,0.088,north-northwest,4.1,No
2020/12/29,08:10,0.180,0.161,0.263,0.250,0.241,0.143,0.087,north-northwest,3.6,No
2020/12/29,08:20,0.180,0.161,0.263,0.249,0.241,0.143,0.087,north,3.8,No
2020/12/29,08:30,0.180,0.162,0.263,0.248,0.242,0.142,0.087,north-northwest,4.3,No
2020/12/29,08:40,0.179,0.162,0.264,0.249,0.242,0.143,0.086,north-northwest,3.8,No
2020/12/29,08:50,0.180,0.161,0.262,0.249,0.241,0.143,0.087,north-northwest,3.4,No
2020/12/29,09:00,0.180,0.161,0.262,0.249,0.242,0.143,0.087,north-northwest,3.5,No
2020/12/29,09:10,0.181,0.162,0.263,0.248,0.241,0.142,0.086,north-northwest,2.5,No
2020/12/29,09:20,0.180,0.162,0.263,0.249,0.242,0.143,0.087,north-northwest,1.5,No
2020/12/29,09:30,0.180,0.161,0.262,0.250,0.241,0.143,0.087,north-northwest,2.7,No
2020/12/29,09:40,0.179,0.161,0.262,0.249,0.243,0.143,0.086,north-northeast,1.4,No
2020/12/29,09:50,0.181,0.162,0.263,0.249,0.241,0.142,0.087,east-northeast,1.6,No
2020/12/29,10:00,0.180,0.161,0.263,0.249,0.242,0.143,0.086,east-northeast,2.6,No
2020/12/29,10:10,0.179,0.161,0.262,0.248,0.241,0.142,0.087,east,2.1,No
2020/12/29,10:20,0.180,0.161,0.262,0.251,0.242,0.143,0.086,east,2.3,No
2020/12/29,10:30,0.180,0.160,0.264,0.250,0.243,0.143,0.087,east,2.0,No
2020/12/29,10:40,0.179,0.161,0.263,0.251,0.241,0.144,0.087,east,1.6,No
2020/12/29,10:50,0.180,0.161,0.262,0.250,0.242,0.143,0.087,east-northeast,1.6,No
2020/12/29,11:00,0.181,0.162,0.263,0.249,0.243,0.142,0.087,east-southeast,1.2,No
2020/12/29,11:10,0.179,0.161,0.261,0.249,0.242,0.143,0.086,east-northeast,2.0,No
2020/12/29,11:20,0.180,0.161,0.263,0.249,0.243,0.143,0.087,east-southeast,2.5,No
2020/12/29,11:30,0.178,0.161,0.262,0.248,0.241,0.144,0.086,southeast,3.2,No
2020/12/29,11:40,0.180,0.161,0.263,0.250,0.242,0.143,0.087,east-southeast,3.6,No
2020/12/29,11:50,0.177,0.160,0.263,0.249,0.242,0.143,0.086,east-southeast,3.4,No
2020/12/29,12:00,0.178,0.161,0.263,0.250,0.242,0.143,0.086,southeast,3.2,No
2020/12/29,12:10,0.179,0.161,0.263,0.250,0.241,0.143,0.087,southeast,2.9,No
2020/12/29,12:20,0.180,0.160,0.264,0.250,0.243,0.143,0.086,southeast,3.3,No
2020/12/29,12:30,0.178,0.161,0.262,0.251,0.241,0.143,0.087,southeast,3.3,No
2020/12/29,12:40,0.180,0.160,0.264,0.251,0.243,0.142,0.086,southeast,3.3,No
2020/12/29,12:50,0.179,0.161,0.263,0.250,0.241,0.143,0.086,southeast,3.1,No
2020/12/29,13:00,0.180,0.160,0.262,0.249,0.243,0.144,0.086,south-southeast,3.4,No
2020/12/29,13:10,0.179,0.161,0.263,0.250,0.242,0.143,0.086,south-southeast,2.8,No
2020/12/29,13:20,0.180,0.161,0.264,0.251,0.242,0.143,0.087,southeast,2.9,No
2020/12/29,13:30,0.179,0.161,0.263,0.249,0.244,0.142,0.086,southeast,2.0,No
2020/12/29,13:40,0.180,0.162,0.263,0.249,0.242,0.142,0.086,south-southeast,2.8,No
2020/12/29,13:50,0.179,0.162,0.263,0.249,0.244,0.143,0.086,south-southeast,2.3,No
2020/12/29,14:00,0.179,0.161,0.265,0.250,0.241,0.144,0.087,southeast,2.4,No
2020/12/29,14:10,0.179,0.162,0.262,0.249,0.242,0.143,0.087,south-southeast,2.7,No
2020/12/29,14:20,0.179,0.160,0.262,0.249,0.242,0.143,0.085,southeast,1.9,No
2020/12/29,14:30,0.180,0.161,0.263,0.249,0.241,0.144,0.086,southeast,2.6,No
2020/12/29,14:40,0.179,0.161,0.264,0.250,0.243,0.142,0.086,southeast,1.7,No
2020/12/29,14:50,0.179,0.160,0.263,0.250,0.243,0.143,0.086,south-southeast,2.8,No
2020/12/29,15:00,0.179,0.161,0.264,0.251,0.243,0.143,0.086,south-southeast,2.8,No
2020/12/29,15:10,0.179,0.161,0.262,0.250,0.241,0.142,0.086,south-southeast,1.2,No
2020/12/29,15:20,0.180,0.161,0.262,0.249,0.240,0.143,0.087,southwest,0.9,No
2020/12/29,15:30,0.181,0.161,0.263,0.249,0.244,0.144,0.086,southeast,1.6,No
2020/12/29,15:40,0.179,0.161,0.262,0.249,0.243,0.142,0.086,south-southeast,1.5,No
2020/12/29,15:50,0.179,0.161,0.263,0.248,0.243,0.143,0.087,south-southeast,3.1,No
2020/12/29,16:00,0.179,0.162,0.264,0.250,0.243,0.144,0.086,south-southeast,3.1,No
2020/12/29,16:10,0.179,0.161,0.263,0.250,0.241,0.142,0.086,south-southeast,3.2,No
2020/12/29,16:20,0.179,0.161,0.263,0.248,0.242,0.144,0.086,south-southeast,3.5,No
2020/12/29,16:30,0.178,0.161,0.264,0.248,0.242,0.145,0.086,south-southeast,3.6,No
2020/12/29,16:40,0.180,0.161,0.263,0.250,0.243,0.143,0.087,south,4.5,No
2020/12/29,16:50,0.181,0.161,0.263,0.250,0.242,0.143,0.086,south,6.0,No
2020/12/29,17:00,0.179,0.162,0.263,0.248,0.242,0.143,0.086,south,6.1,No
2020/12/29,17:10,0.179,0.161,0.263,0.251,0.240,0.142,0.086,south,6.0,No
2020/12/29,17:20,0.180,0.161,0.263,0.250,0.242,0.142,0.086,south,5.1,No
2020/12/29,17:30,0.180,0.162,0.263,0.249,0.242,0.143,0.086,south,3.9,No
2020/12/29,17:40,0.180,0.161,0.264,0.250,0.242,0.143,0.086,south-southwest,4.3,No
2020/12/29,17:50,0.180,0.160,0.263,0.250,0.241,0.143,0.086,south-southwest,4.0,No
2020/12/29,18:00,0.178,0.161,0.262,0.249,0.241,0.143,0.086,south,5.0,No
2020/12/29,18:10,0.179,0.161,0.263,0.250,0.241,0.143,0.086,south,5.2,No
2020/12/29,18:20,0.181,0.160,0.263,0.249,0.243,0.143,0.087,south,5.6,No
2020/12/29,18:30,0.179,0.161,0.263,0.249,0.242,0.142,0.086,south,6.8,No
2020/12/29,18:40,0.178,0.162,0.263,0.249,0.242,0.143,0.086,south,7.5,No
2020/12/29,18:50,0.179,0.161,0.263,0.250,0.243,0.143,0.087,south-southwest,8.5,No
2020/12/29,19:00,0.180,0.161,0.263,0.251,0.242,0.143,0.086,south,7.3,No
2020/12/29,19:10,0.178,0.162,0.264,0.251,0.241,0.143,0.086,south,8.4,No
2020/12/29,19:20,0.180,0.162,0.264,0.250,0.242,0.143,0.086,south,8.1,No
2020/12/29,19:30,0.179,0.161,0.263,0.250,0.242,0.143,0.087,south,7.5,No
2020/12/29,19:40,0.179,0.161,0.262,0.251,0.241,0.143,0.086,south-southwest,8.1,No
2020/12/29,19:50,0.178,0.161,0.263,0.249,0.242,0.143,0.087,south,7.3,No
2020/12/29,20:00,0.180,0.161,0.263,0.250,0.243,0.142,0.086,south,6.8,No
2020/12/29,20:10,0.179,0.160,0.262,0.250,0.242,0.143,0.087,south-southwest,7.3,No
2020/12/29,20:20,0.179,0.160,0.264,0.250,0.243,0.143,0.086,south-southwest,6.3,No
2020/12/29,20:30,0.180,0.162,0.263,0.249,0.241,0.142,0.086,south-southwest,6.3,No
2020/12/29,20:40,0.179,0.161,0.263,0.250,0.241,0.142,0.086,south-southwest,5.6,No
2020/12/29,20:50,0.179,0.161,0.262,0.249,0.242,0.143,0.086,south-southwest,6.7,No
2020/12/29,21:00,0.179,0.160,0.263,0.250,0.242,0.142,0.087,south,6.0,No
2020/12/29,21:10,0.179,0.161,0.263,0.250,0.241,0.142,0.087,south-southwest,5.2,No
2020/12/29,21:20,0.179,0.162,0.264,0.250,0.243,0.143,0.086,south,4.8,No
2020/12/29,21:30,0.179,0.161,0.263,0.249,0.241,0.142,0.087,south-southwest,4.7,No
2020/12/29,21:40,0.180,0.160,0.262,0.249,0.241,0.143,0.087,south-southwest,4.6,No
2020/12/29,21:50,0.179,0.161,0.263,0.250,0.244,0.143,0.087,south-southwest,4.4,No
2020/12/29,22:00,0.180,0.161,0.262,0.250,0.242,0.143,0.086,southwest,4.0,No
2020/12/29,22:10,0.179,0.161,0.263,0.250,0.242,0.143,0.087,southwest,3.0,No
2020/12/29,22:20,0.179,0.161,0.261,0.250,0.242,0.143,0.087,south-southwest,3.0,No
2020/12/29,22:30,0.180,0.161,0.263,0.250,0.241,0.143,0.087,south-southwest,3.4,No
2020/12/29,22:40,0.180,0.162,0.264,0.250,0.241,0.142,0.087,south,4.5,No
2020/12/29,22:50,0.179,0.161,0.261,0.248,0.242,0.142,0.087,south-southeast,7.0,No
2020/12/29,23:00,0.180,0.162,0.262,0.250,0.242,0.144,0.086,south-southeast,7.5,No
2020/12/29,23:10,0.180,0.161,0.264,0.250,0.242,0.144,0.086,south,7.4,No
2020/12/29,23:20,0.179,0.161,0.265,0.249,0.242,0.143,0.087,south,6.4,No
2020/12/29,23:30,0.179,0.163,0.263,0.249,0.242,0.142,0.086,south,5.6,No
2020/12/29,23:40,0.180,0.162,0.262,0.250,0.242,0.143,0.086,south,6.1,No
2020/12/29,23:50,0.180,0.161,0.264,0.250,0.242,0.144,0.087,south,6.4,No
